sat.trackr.live / text

‹ back to catalog

STARLINK-34218

NORAD 64338 · 2025-124X

PAYLOAD ACTIVE UNKNOWN

§ Identity

Operator
Country
US
Launch date
2025-06-10
Launch site
AFETR
Launch vehicle
Mass (kg)
RCS (m²)

Purposes: comms

External: N2YO · Heavens-Above · Gunter

§ Orbital elements

Epoch: 2026-05-24T22:32:38.900832Z

Period
94.27 min
Inclination
42.9999°
Eccentricity
0.0001528
Mean motion
15.27599016 rev/d
Perigee alt
481.9 km
Apogee alt
484.0 km
Semi-major
6,861.1 km
B*
8.4892e-4
RAAN
47.4693°
Arg perigee
251.3860°
Mean anomaly
108.6826°
Rev number
5,348

§ Raw data

STARLINK-342181 64338U 25124X   26144.93933913  .00023185  00000+0  84892-3 0  99972 64338  42.9999  47.4693 0001528 251.3860 108.6826 15.27599016 53488

JSON: /api/v1/satellites/64338 · /tle

For live sub-satellite position, see the globe view (requires WebGL).

§ Visibility from observer

Set your observer location to see the next 7 days of passes ≥ 10°. The values pass through the URL so the page stays shareable.

No JS? Fill the form by hand. The geolocation button needs JavaScript.